This demonstration page uses our WeatherBlox Daily Observations layout. Learn more.

Left ArrowRight Arrow

44.8408, -93.29828

Hourly Observations for March 26, 2022

Temp ( °F °C ) Dew Point ( °F °C ) Humidity (%) Winds ( mph kmh ) Pressure ( in mb ) Visibility ( mi km ) Precip ( " mm )
12:53 am 00:53 Clear 25 -3.9 9 -12.8 50 50 NNW 16 26 29.97 1015 10 16 0.00 0.00
1:53 am 01:53 Partly Cloudy 23 -5 9 -12.8 55 55 NNW 25 41 29.99 1016 10 16 0.00 0.00
2:53 am 02:53 Mostly Cloudy 22 -5.6 9 -12.8 57 57 NNW 20 31 30.01 1016 10 16 0.00 0.00
3:53 am 03:53 Cloudy 21 -6.1 9 -12.8 59 59 NNW 17 28 30.02 1017 10 16 0.00 0.00
4:53 am 04:53 Mostly Clear 20 -6.7 6 -14.4 55 55 NNW 23 37 30.03 1017 10 16 0.00 0.00
5:53 am 05:53 Mostly Cloudy 20 -6.7 6 -14.4 55 55 NNW 22 35 30.05 1018 10 16 0.00 0.00
6:53 am 06:53 Cloudy 21 -6.1 6 -14.4 52 52 NNW 14 22 30.08 1019 10 16 0.00 0.00
7:53 am 07:53 Partly Cloudy 19 -7.2 2 -16.7 47 47 NNW 25 41 30.11 1020 10 16 0.00 0.00
8:53 am 08:53 Mostly Sunny 21 -6.1 2 -16.7 43 43 N 23 37 30.12 1020 10 16 0.00 0.00
9:53 am 09:53 Mostly Sunny 23 -5 3 -16.1 42 42 N 22 35 30.14 1021 10 16 0.00 0.00
10:53 am 10:53 Mostly Sunny 25 -3.9 4 -15.6 40 40 NNW 22 35 30.16 1021 10 16 0.00 0.00
11:53 am 11:53 Sunny 28 -2.2 3 -16.1 34 34 NNW 25 41 30.16 1021 10 16 0.00 0.00
12:53 pm 12:53 Sunny 29 -1.7 3 -16.1 33 33 NNW 17 28 30.16 1021 10 16 0.00 0.00
1:53 pm 13:53 Sunny 31 -0.6 5 -15 33 33 NW 18 30 30.15 1021 10 16 0.00 0.00
2:53 pm 14:53 Sunny 31 -0.6 3 -16.1 30 30 NNW 21 33 30.16 1021 10 16 0.00 0.00
3:53 pm 15:53 Sunny 32 0 3 -16.1 29 29 NW 23 37 30.15 1021 10 16 0.00 0.00
4:53 pm 16:53 Sunny 32 0 2 -16.7 27 27 NNW 17 28 30.15 1021 10 16 0.00 0.00
5:53 pm 17:53 Sunny 32 0 1 -17.2 26 26 NW 18 30 30.14 1021 10 16 0.00 0.00
6:53 pm 18:53 Sunny 30 -1.1 2 -16.7 30 30 NW 16 26 30.16 1021 10 16 0.00 0.00
7:53 pm 19:53 Mostly Clear 28 -2.2 2 -16.7 32 32 NW 13 20 30.18 1022 10 16 0.00 0.00
8:53 pm 20:53 Mostly Clear 27 -2.8 3 -16.1 35 35 NW 15 24 30.19 1023 10 16 0.00 0.00
9:53 pm 21:53 Mostly Clear 26 -3.3 0 -17.8 32 32 NNW 15 24 30.21 1023 10 16 0.00 0.00
10:53 pm 22:53 Mostly Clear 25 -3.9 1 -17.2 35 35 NNW 17 28 30.23 1024 10 16 0.00 0.00
11:53 pm 23:53 Mostly Clear 23 -5 1 -17.2 38 38 N 15 24 30.25 1024 10 16 0.00 0.00

Powered by AerisWeather